KE5WLM Weather Reports


time (UTC)temp
F
wind
direction
speed
knots
gust
knots
rain 1hr
in
rain 24hr
in
rain mn
in
humidity
%
barometer
mb
20260510154533 73 355 4.3 21.7 0.00 0.00 0.00 45 1017.9
20260510154032 74 307 5.2 18.2 0.00 0.00 0.00 45 1018.0
20260510153534 73 5 5.2 19.1 0.00 0.00 0.00 45 1017.9
20260510153036 73 10 5.2 19.1 0.00 0.00 0.00 46 1018.0
20260510152534 72 308 6.1 17.4 0.00 0.00 0.00 46 1018.1
20260510152029 72 304 7.8 16.5 0.00 0.00 0.00 46 1018.0
20260510151530 72 360 6.1 20.9 0.00 0.00 0.00 46 1018.0
20260510151027 72 298 7.0 20.9 0.00 0.00 0.00 45 1017.8
20260510150526 72 312 7.8 20.9 0.00 0.00 0.00 45 1017.5
20260510150038 72 306 5.2 19.1 0.00 0.00 0.00 45 1017.3
20260510145528 72 355 8.7 19.1 0.00 0.00 0.00 46 1017.2
20260510145022 72 355 7.8 20.9 0.00 0.00 0.00 45 1016.9
20260510144523 73 293 7.0 20.9 0.00 0.00 0.00 45 1016.7
20260510144021 73 306 7.8 22.6 0.00 0.00 0.00 45 1016.5
20260510143519 73 350 7.8 22.6 0.00 0.00 0.00 45 1016.3
20260510143022 74 318 7.0 20.0 0.00 0.00 0.00 48 1015.9
20260510142518 74 360 7.8 20.0 0.00 0.00 0.00 49 1015.7
20260510142017 73 360 6.1 20.0 0.00 0.00 0.00 49 1015.6
20260510141525 73 314 7.0 20.0 0.00 0.00 0.00 46 1015.2
20260510141015 73 269 7.0 19.1 0.00 0.00 0.00 42 1015.0
20260510140514 73 18 7.0 21.7 0.00 0.00 0.00 40 1014.9
20260510140013 73 317 7.8 25.2 0.00 0.00 0.00 40 1014.9
20260510135516 73 290 7.0 23.5 0.00 0.00 0.00 37 1014.9
20260510135012 73 277 6.1 23.5 0.00 0.00 0.00 35 1014.8
20260510134512 72 324 4.3 18.2 0.00 0.00 0.00 34 1014.6
20260510134009 72 309 2.6 14.8 0.00 0.00 0.00 33 1014.4
20260510133508 72 286 3.5 14.8 0.00 0.00 0.00 33 1014.3
20260510133007 71 302 1.7 18.2 0.00 0.00 0.00 32 1014.1
20260510132507 71 309 5.2 18.2 0.00 0.00 0.00 31 1013.8
20260510132006 71 317 4.3 14.8 0.00 0.00 0.00 31 1013.8
20260510131506 71 292 3.5 13.9 0.00 0.00 0.00 31 1013.5
20260510131003 70 297 2.6 13.0 0.00 0.00 0.00 31 1013.4
20260510130504 69 355 3.5 12.2 0.00 0.00 0.00 32 1013.3
20260510130003 68 303 1.7 7.0 0.00 0.00 0.00 35 1013.2
20260510125501 66 302 0.9 6.1 0.00 0.00 0.00 35 1012.8
20260510125059 65 301 0.9 6.1 0.00 0.00 0.00 37 1012.7
20260510124604 63 294 0.0 2.6 0.00 0.00 0.00 39 1012.5
20260510124058 62 291 0.0 2.6 0.00 0.00 0.00 41 1012.5
20260510123558 61 290 0.9 1.7 0.00 0.00 0.00 43 1012.4
20260510123108 61 290 0.0 1.7 0.00 0.00 0.00 44 1012.6
20260510122556 61 290 0.0 1.7 0.00 0.00 0.00 44 1012.6
20260510122056 61 290 0.0 1.7 0.00 0.00 0.00 44 1012.5
20260510121555 61 285 0.0 1.7 0.00 0.00 0.00 44 1012.4
20260510121054 62 284 0.0 1.7 0.00 0.00 0.00 42 1012.3
20260510120553 62 258 0.0 2.6 0.00 0.00 0.00 41 1012.3
20260510120053 61 257 0.9 2.6 0.00 0.00 0.00 44 1012.3
20260510115552 61 254 0.0 1.7 0.00 0.00 0.00 44 1012.0
20260510115052 61 254 0.0 1.7 0.00 0.00 0.00 44 1011.7
20260510114549 61 254 0.0 0.9 0.00 0.00 0.00 43 1011.6
20260510114049 62 254 0.0 0.9 0.00 0.00 0.00 42 1011.6
20260510113548 62 254 0.0 3.5 0.00 0.00 0.00 42 1011.7
20260510113046 62 257 0.9 3.5 0.00 0.00 0.00 42 1011.6
20260510112545 63 257 0.0 0.9 0.00 0.00 0.00 41 1011.4
20260510112046 63 257 0.0 0.9 0.00 0.00 0.00 40 1011.5
20260510111544 63 257 0.0 0.9 0.00 0.00 0.00 41 1011.5
20260510111042 63 257 0.0 4.3 0.00 0.00 0.00 40 1011.4
20260510110541 63 249 1.7 4.3 0.00 0.00 0.00 40 1011.2
20260510110045 63 254 0.0 1.7 0.00 0.00 0.00 40 1011.2
20260510105539 64 254 0.0 1.7 0.00 0.00 0.00 39 1011.0
20260510105039 64 254 0.0 1.7 0.00 0.00 0.00 38 1010.9
20260510104538 64 254 0.0 7.0 0.00 0.00 0.00 38 1011.0
20260510104037 65 249 2.6 7.0 0.00 0.00 0.00 38 1011.2
20260510103538 65 267 0.0 0.0 0.00 0.00 0.00 37 1011.0
20260510103034 65 267 0.0 1.7 0.00 0.00 0.00 36 1010.9
20260510102534 66 267 0.0 2.6 0.00 0.00 0.00 37 1010.9
20260510102034 65 267 0.0 2.6 0.00 0.00 0.00 37 1010.9
20260510101534 66 275 0.9 2.6 0.00 0.00 0.00 36 1010.8
20260510101033 65 250 0.0 0.0 0.00 0.00 0.00 36 1010.6
20260510100535 66 250 0.0 1.7 0.00 0.00 0.00 37 1010.5
20260510100036 66 250 0.0 2.6 0.00 0.00 0.00 35 1010.5
20260510095532 66 276 1.7 2.6 0.00 0.00 0.00 34 1010.5
20260510095033 66 196 0.0 0.9 0.00 0.00 0.00 35 1010.4
20260510094539 66 196 0.0 1.7 0.00 0.00 0.00 36 1010.4
20260510094030 66 196 0.0 3.5 0.00 0.00 0.00 35 1010.4
20260510093531 65 179 0.9 3.5 0.00 0.00 0.00 36 1010.6
20260510093131 65 246 0.0 0.9 0.00 0.00 0.00 36 1010.6
20260510092530 66 246 0.0 0.9 0.00 0.00 0.00 37 1010.6
20260510092029 66 246 0.0 4.3 0.00 0.00 0.00 36 1010.7
20260510091530 65 239 0.9 2.6 0.00 0.00 0.00 36 1010.8
20260510091032 65 303 0.0 0.0 0.00 0.00 0.00 37 1010.8
20260510090529 66 303 0.0 1.7 0.00 0.00 0.00 35 1010.6
20260510090030 66 303 0.0 3.5 0.00 0.00 0.00 35 1010.6
20260510085528 66 266 1.7 3.5 0.00 0.00 0.00 36 1010.6
20260510085028 66 216 0.0 0.0 0.00 0.00 0.00 35 1010.6
20260510084526 66 216 0.0 2.6 0.00 0.00 0.00 34 1010.6
20260510084027 66 216 0.0 2.6 0.00 0.00 0.00 34 1010.6
20260510083525 66 260 0.9 2.6 0.00 0.00 0.00 34 1010.7
20260510083025 67 291 0.0 0.0 0.00 0.00 0.00 33 1010.7
20260510082523 67 291 0.0 3.5 0.00 0.00 0.00 32 1010.6
20260510082026 68 290 1.7 4.3 0.00 0.00 0.00 31 1010.7
20260510081535 68 282 0.0 1.7 0.00 0.00 0.00 31 1010.6
20260510081024 67 282 0.0 1.7 0.00 0.00 0.00 31 1010.6
20260510080523 67 282 0.0 3.5 0.00 0.00 0.00 31 1010.6
20260510080031 68 275 0.9 3.5 0.00 0.00 0.00 31 1010.7
20260510075521 68 257 0.0 0.0 0.00 0.00 0.00 30 1010.6
20260510075021 68 257 0.0 2.6 0.00 0.00 0.00 29 1010.5
20260510074520 68 254 0.9 2.6 0.00 0.00 0.00 29 1010.5
20260510074018 68 296 0.0 1.7 0.00 0.00 0.00 29 1010.5
20260510073517 69 288 0.0 2.6 0.00 0.00 0.00 29 1010.6
20260510073016 70 288 0.0 3.5 0.00 0.00 0.00 27 1010.5
20260510072516 70 286 1.7 3.5 0.00 0.00 0.00 27 1010.7
20260510072016 70 187 0.0 2.6 0.00 0.00 0.00 27 1010.6
20260510071515 70 187 0.0 4.3 0.00 0.00 0.00 27 1010.6
20260510071013 70 147 0.9 4.3 0.00 0.00 0.00 27 1010.5
20260510070515 71 157 0.0 4.3 0.00 0.00 0.00 26 1010.5
20260510070013 71 157 0.0 4.3 0.00 0.00 0.00 26 1010.4
20260510065512 71 157 1.7 4.3 0.00 0.00 0.00 26 1010.4
20260510065011 72 236 0.0 4.3 0.00 0.00 0.00 26 1010.6
20260510064513 72 211 0.9 4.3 0.00 0.00 0.00 25 1010.5
20260510064010 72 212 0.0 5.2 0.00 0.00 0.00 25 1010.5
20260510063511 72 190 1.7 5.2 0.00 0.00 0.00 26 1010.5
20260510063010 72 224 0.0 5.2 0.00 0.00 0.00 24 1010.5
20260510062508 73 224 1.7 5.2 0.00 0.00 0.00 25 1010.4
20260510062010 73 205 0.9 4.3 0.00 0.00 0.00 24 1010.6
20260510061509 72 207 0.0 4.3 0.00 0.00 0.00 25 1010.6
20260510061007 73 207 0.0 5.2 0.00 0.00 0.00 26 1010.6
20260510060506 73 223 2.6 5.2 0.00 0.00 0.00 25 1010.7
20260510060006 72 320 0.0 2.6 0.00 0.00 0.00 25 1010.6
20260510055503 72 329 0.0 4.3 0.00 0.00 0.00 27 1010.6
20260510055005 73 288 0.9 4.3 0.00 0.00 0.00 27 1010.7
20260510054503 73 241 0.0 1.7 0.00 0.00 0.00 26 1010.6
20260510054003 73 241 0.0 2.6 0.00 0.00 0.00 26 1010.6
20260510053502 74 263 0.9 2.6 0.00 0.00 0.00 24 1010.6
20260510053002 74 217 0.0 2.6 0.00 0.00 0.00 24 1010.5
20260510052502 75 217 0.0 6.1 0.00 0.00 0.00 23 1010.5
20260510052002 74 194 1.7 6.1 0.00 0.00 0.00 24 1010.7
20260510051505 73 186 0.0 3.5 0.00 0.00 0.00 25 1010.6
20260510051001 73 180 0.0 4.3 0.00 0.00 0.00 26 1010.6
20260510050501 72 189 1.7 4.3 0.00 0.00 0.00 28 1010.7
20260510050001 72 236 0.0 5.2 0.00 0.00 0.00 27 1010.6
20260510045504 72 248 0.0 5.2 0.00 0.00 0.00 26 1010.6
20260510045002 73 263 1.7 4.3 0.00 0.00 0.00 26 1010.7
20260510044601 73 252 0.9 4.3 0.00 0.00 0.00 26 1010.6
20260510044100 74 127 0.0 4.3 0.00 0.00 0.00 26 1010.6
20260510043600 74 132 0.9 4.3 0.00 0.00 0.00 26 1010.7
20260510043101 74 169 0.0 6.1 0.00 0.00 0.00 27 1010.7
20260510042602 74 101 0.0 6.1 0.00 0.00 0.00 26 1010.6
20260510042059 74 139 0.9 2.6 0.00 0.00 0.00 26 1010.6
20260510041636 75 159 0.0 0.9 0.00 0.00 0.00 24 1010.6
20260510041102 75 344 0.0 2.6 0.00 0.00 0.00 24 1010.5
20260510040559 75 315 0.9 5.2 0.00 0.00 0.00 24 1010.5
20260510040100 75 268 0.9 5.2 0.00 0.00 0.00 23 1010.5
20260510035559 76 268 0.0 4.3 0.00 0.00 0.00 23 1010.4
20260510035102 76 251 1.7 5.2 0.00 0.00 0.00 23 1010.4
20260510034605 76 234 0.9 4.3 0.00 0.00 0.00 23 1010.4
20260510034100 76 235 0.0 4.3 0.00 0.00 0.00 22 1010.2
20260510033559 76 215 1.7 3.5 0.00 0.00 0.00 23 1010.3
20260510033119 76 231 0.0 3.5 0.00 0.00 0.00 23 1010.2
20260510032600 76 257 0.0 2.6 0.00 0.00 0.00 23 1010.2
20260510032058 77 210 0.9 2.6 0.00 0.00 0.00 23 1010.2
20260510031602 77 240 0.0 5.2 0.00 0.00 0.00 22 1010.1
20260510031057 78 234 0.9 5.2 0.00 0.00 0.00 22 1010.1
20260510030600 77 219 1.7 4.3 0.00 0.00 0.00 21 1010.0
20260510030058 77 227 0.9 4.3 0.00 0.00 0.00 23 1010.0
20260510025557 77 282 0.9 4.3 0.00 0.00 0.00 21 1010.0
20260510025100 78 276 0.9 3.5 0.00 0.00 0.00 21 1009.9
20260510024611 78 262 0.0 2.6 0.00 0.00 0.00 21 1009.8
20260510024057 79 262 0.9 3.5 0.00 0.00 0.00 20 1009.8
20260510023556 79 202 0.9 3.5 0.00 0.00 0.00 20 1009.7
20260510023101 79 217 0.0 4.3 0.00 0.00 0.00 21 1009.6
20260510022556 80 217 0.9 4.3 0.00 0.00 0.00 20 1009.7
20260510022057 80 229 0.9 3.5 0.00 0.00 0.00 19 1009.5
20260510021556 81 244 0.0 2.6 0.00 0.00 0.00 18 1009.4
20260510021056 81 243 0.9 4.3 0.00 0.00 0.00 18 1009.4
20260510020556 81 307 0.9 4.3 0.00 0.00 0.00 19 1009.3
20260510020056 82 248 0.0 4.3 0.00 0.00 0.00 19 1009.2
20260510015557 82 249 0.0 4.3 0.00 0.00 0.00 19 1009.2
20260510015057 83 279 0.9 3.5 0.00 0.00 0.00 19 1009.1
20260510014613 84 301 0.0 2.6 0.00 0.00 0.00 20 1009.0
20260510014055 84 289 0.9 2.6 0.00 0.00 0.00 17 1009.0
20260510013555 85 212 0.9 2.6 0.00 0.00 0.00 17 1009.0
20260510013103 86 286 0.9 2.6 0.00 0.00 0.00 15 1009.0
20260510012555 87 310 0.9 2.6 0.00 0.00 0.00 15 1009.0
20260510012054 87 275 0.9 2.6 0.00 0.00 0.00 15 1008.9
20260510011555 88 333 0.0 3.5 0.00 0.00 0.00 14 1008.9
20260510011055 89 309 0.9 5.2 0.00 0.00 0.00 13 1008.9
20260510010554 90 284 2.6 5.2 0.00 0.00 0.00 13 1009.0
20260510010054 91 261 0.9 5.2 0.00 0.00 0.00 13 1008.9
20260510005554 91 229 0.9 4.3 0.00 0.00 0.00 12 1008.9
20260510005053 92 214 0.9 4.3 0.00 0.00 0.00 12 1008.9
20260510004600 92 227 0.9 5.2 0.00 0.00 0.00 11 1009.0
20260510004052 92 207 1.7 5.2 0.00 0.00 0.00 11 1008.9
20260510003553 92 188 0.9 3.5 0.00 0.00 0.00 12 1008.9
20260510003053 92 240 0.0 4.3 0.00 0.00 0.00 12 1008.9
20260510002552 92 247 1.7 5.2 0.00 0.00 0.00 11 1009.0
20260510002051 93 230 1.7 5.2 0.00 0.00 0.00 12 1009.0
20260510001552 93 230 0.9 5.2 0.00 0.00 0.00 12 1009.0
20260510001051 93 186 1.7 4.3 0.00 0.00 0.00 10 1009.0
20260510000551 94 218 1.7 4.3 0.00 0.00 0.00 10 1009.1
20260510000050 94 228 1.7 4.3 0.00 0.00 0.00 11 1009.1
20260509235551 94 230 0.9 5.2 0.00 0.00 0.00 11 1009.1
20260509235054 94 232 1.7 5.2 0.00 0.00 0.00 11 1009.1
20260509234650 94 238 1.7 6.1 0.00 0.00 0.00 11 1009.1
20260509234049 94 214 1.7 7.0 0.00 0.00 0.00 10 1009.2
20260509233548 95 229 2.6 7.0 0.00 0.00 0.00 11 1009.2
20260509233052 95 234 1.7 7.0 0.00 0.00 0.00 11 1009.2
20260509232548 94 189 1.7 7.0 0.00 0.00 0.00 11 1009.3
20260509232048 94 186 1.7 6.1 0.00 0.00 0.00 11 1009.3
20260509231557 95 251 2.6 9.6 0.00 0.00 0.00 10 1009.3
20260509231047 95 248 2.6 9.6 0.00 0.00 0.00 10 1009.3
20260509230550 95 158 1.7 6.1 0.00 0.00 0.00 11 1009.3
20260509230046 95 180 1.7 8.7 0.00 0.00 0.00 12 1009.4
20260509225547 95 230 0.9 8.7 0.00 0.00 0.00 10 1009.4
20260509225045 95 165 2.6 7.8 0.00 0.00 0.00 11 1009.4
20260509224546 95 175 1.7 7.8 0.00 0.00 0.00 10 1009.6
20260509224045 95 235 3.5 6.1 0.00 0.00 0.00 11 1009.5
20260509223545 93 164 0.0 7.8 0.00 0.00 0.00 11 1009.6
20260509223050 94 163 3.5 7.8 0.00 0.00 0.00 12 1009.7
20260509222547 95 198 3.5 8.7 0.00 0.00 0.00 11 1009.7
20260509222044 95 188 1.7 10.4 0.00 0.00 0.00 12 1009.7
20260509221545 95 182 2.6 11.3 0.00 0.00 0.00 12 1009.8
20260509221041 94 179 2.6 6.1 0.00 0.00 0.00 13 1009.9
20260509220541 93 195 1.7 8.7 0.00 0.00 0.00 11 1009.9
20260509220045 95 94 0.9 8.7 0.00 0.00 0.00 11 1009.8
20260509215542 95 167 2.6 7.0 0.00 0.00 0.00 12 1009.9
20260509215041 94 158 2.6 7.0 0.00 0.00 0.00 12 1010.1
20260509214541 93 261 0.9 6.1 0.00 0.00 0.00 14 1010.1
20260509214041 92 248 0.0 6.1 0.00 0.00 0.00 12 1010.2
20260509213538 93 240 1.7 5.2 0.00 0.00 0.00 12 1010.2
20260509213037 94 217 1.7 13.0 0.00 0.00 0.00 12 1010.3
20260509212536 95 192 3.5 13.0 0.00 0.00 0.00 11 1010.4
20260509212036 96 166 3.5 6.1 0.00 0.00 0.00 11 1010.5
20260509211536 96 227 1.7 7.8 0.00 0.00 0.00 12 1010.5
20260509211036 96 183 2.6 7.0 0.00 0.00 0.00 14 1010.5
20260509210536 94 84 0.9 7.0 0.00 0.00 0.00 13 1010.6
20260509210047 93 165 3.5 7.0 0.00 0.00 0.00 12 1010.8
20260509205534 93 236 1.7 9.6 0.00 0.00 0.00 15 1010.7
20260509205035 94 190 0.9 8.7 0.00 0.00 0.00 13 1010.8
20260509204534 93 159 3.5 8.7 0.00 0.00 0.00 12 1010.9
20260509204032 93 146 0.9 6.1 0.00 0.00 0.00 11 1010.9
20260509203532 95 190 2.6 6.1 0.00 0.00 0.00 12 1011.1
20260509203034 96 121 0.0 3.5 0.00 0.00 0.00 12 1011.0
20260509202534 95 232 0.9 7.8 0.00 0.00 0.00 12 1011.2
20260509202031 96 155 2.6 9.6 0.00 0.00 0.00 10 1011.3
20260509201531 97 163 4.3 10.4 0.00 0.00 0.00 11 1011.2
20260509201028 97 236 1.7 9.6 0.00 0.00 0.00 11 1011.4
20260509200528 96 199 3.5 7.8 0.00 0.00 0.00 11 1011.5
20260509200031 96 129 1.7 7.0 0.00 0.00 0.00 12 1011.5
20260509195529 96 102 1.7 8.7 0.00 0.00 0.00 12 1011.5
20260509195026 96 151 3.5 9.6 0.00 0.00 0.00 12 1011.7
20260509194527 95 241 1.7 9.6 0.00 0.00 0.00 13 1011.7
20260509194024 95 166 5.2 9.6 0.00 0.00 0.00 12 1011.7
20260509193626 95 278 1.7 10.4 0.00 0.00 0.00 14 1011.8
20260509193023 95 159 4.3 12.2 0.00 0.00 0.00 13 1011.8
20260509192522 94 176 2.6 10.4 0.00 0.00 0.00 14 1011.9
20260509192022 94 164 7.0 10.4 0.00 0.00 0.00 13 1012.1
20260509191525 95 159 4.3 10.4 0.00 0.00 0.00 13 1012.0
20260509191023 94 132 2.6 9.6 0.00 0.00 0.00 15 1012.1
20260509190519 94 211 2.6 11.3 0.00 0.00 0.00 14 1012.2
20260509190017 93 228 4.3 11.3 0.00 0.00 0.00 13 1012.2
20260509185519 93 180 0.0 8.7 0.00 0.00 0.00 14 1012.2
20260509185017 93 184 4.3 8.7 0.00 0.00 0.00 14 1012.4
20260509184521 92 244 0.0 13.9 0.00 0.00 0.00 13 1012.4
20260509184015 93 161 0.9 13.9 0.00 0.00 0.00 13 1012.5
20260509183514 93 176 4.3 14.8 0.00 0.00 0.00 15 1012.6
20260509183014 92 248 1.7 14.8 0.00 0.00 0.00 14 1012.6
20260509182512 93 136 2.6 10.4 0.00 0.00 0.00 15 1012.8
20260509182011 92 168 2.6 12.2 0.00 0.00 0.00 16 1012.8
20260509181510 92 161 7.0 12.2 0.00 0.00 0.00 15 1012.9
20260509181010 91 141 6.1 13.0 0.00 0.00 0.00 16 1013.0
20260509180508 92 159 2.6 13.0 0.00 0.00 0.00 16 1012.9
20260509180007 91 156 4.3 13.9 0.00 0.00 0.00 16 1013.2
20260509175506 90 148 7.8 13.0 0.00 0.00 0.00 16 1013.1
20260509175006 90 142 7.0 16.5 0.00 0.00 0.00 16 1013.2
20260509174509 89 155 6.1 16.5 0.00 0.00 0.00 17 1013.3
20260509174005 90 164 5.2 14.8 0.00 0.00 0.00 19 1013.5
20260509173504 89 159 0.0 10.4 0.00 0.00 0.00 19 1013.4
20260509173004 89 166 3.5 10.4 0.00 0.00 0.00 18 1013.5
20260509172501 88 190 2.6 9.6 0.00 0.00 0.00 21 1013.6
20260509172100 88 169 1.7 9.6 0.00 0.00 0.00 20 1013.6
20260509171602 87 150 0.9 7.0 0.00 0.00 0.00 21 1013.7
20260509171057 87 93 0.9 7.0 0.00 0.00 0.00 22 1013.7
20260509170600 86 165 1.7 9.6 0.00 0.00 0.00 22 1013.8
20260509170107 86 138 0.9 9.6 0.00 0.00 0.00 23 1013.9
20260509165553 86 114 0.0 7.8 0.00 0.00 0.00 25 1014.0
20260509165053 85 87 1.7 7.8 0.00 0.00 0.00 24 1014.1
20260509164558 84 180 0.9 6.1 0.00 0.00 0.00 25 1014.2
20260509164049 84 135 0.9 7.0 0.00 0.00 0.00 27 1014.2
20260509163549 83 97 0.9 7.0 0.00 0.00 0.00 27 1014.2
20260509163048 83 99 0.9 7.0 0.00 0.00 0.00 28 1014.3
20260509162545 82 167 2.6 7.0 0.00 0.00 0.00 27 1014.3
20260509162045 81 128 0.9 7.8 0.00 0.00 0.00 28 1014.3
20260509161544 81 169 2.6 7.8 0.00 0.00 0.00 28 1014.3
20260509161041 80 153 1.7 7.8 0.00 0.00 0.00 30 1014.3
20260509160543 80 154 0.0 6.1 0.00 0.00 0.00 30 1014.3
20260509160043 79 150 1.7 7.0 0.00 0.00 0.00 31 1014.4
20260509155538 78 158 0.9 7.0 0.00 0.00 0.00 31 1014.4
20260509155036 78 139 0.9 7.8 0.00 0.00 0.00 31 1014.5